Regional Weather Roundup
Issued by NWS

Home | Current Version | Previous Version | Text Only | Print | Product List | Glossary Off
Versions: 1 2 3 4 5 6 7 8 9 10 11 12 13 14 15 16 17 18 19 20 21 22 23 24 25 26 27 28 29 30 31 32 33 34 35 36 37 38 39 40 41 42 43 44 45 46 47 48 49 50

372
ASUS45 KCYS 081910
RWRWY

WYOMING REGIONAL WEATHER ROUNDUP
NATIONAL WEATHER SERVICE CHEYENNE WY
1200 PM MST THU DEC 08 2016

NOTE:  "FAIR" INDICATES FEW OR NO CLOUDS BELOW 12,000 FEET
WITH NO SIGNIFICANT WEATHER AND/OR OBSTRUCTIONS TO VISIBILITY.

WYZ001-082000-
YELLOWSTONE NATIONAL PARK

CITY           SKY/WX    TMP DP  RH WIND       PRES   REMARKS
LK YELLOWSTONE   N/A      5  -4  66 CALM      30.10F
W YELLOWSTONE  NOT AVBL

$$
WYZ002>013-054>058-071-098>099-082000-
NORTHERN WYOMING

CITY           SKY/WX    TMP DP  RH WIND       PRES   REMARKS
JACKSON        SUNNY     -4  -8  84 CALM      30.24F
CODY           FAIR       6  -3  66 S3        30.28F
GREYBULL       FAIR       6  -4  63 S6        30.40F WCI  -4
WORLAND        FAIR       7   0  73 CALM      30.36F
SHERIDAN       FAIR       2  -6  69 NW5       30.41F WCI  -8
BUFFALO        FAIR       8  -6  52 S15       30.32F WCI  -9
GILLETTE       FAIR       5  -3  69 S9        30.40F WCI  -9
HULETT         FAIR       5  -4  66 SW3       30.43F
NEWCASTLE      FAIR       5  -6  61 W5        30.45F WCI  -4

$$
WYZ014>020-022>026-101>103-082000-
CENTRAL WYOMING

CITY           SKY/WX    TMP DP  RH WIND       PRES   REMARKS
BIG PINEY      FAIR       5  -4  66 CALM      30.21F
PINEDALE       FAIR       3  -6  66 NW6       30.21F WCI  -8
DUBOIS         FAIR      10  -6  48 CALM      30.08F
LANDER         FAIR       6  -2  69 VRB3      30.24F
RIVERTON       FAIR       8   1  73 NE3       30.26F
CASPER         FAIR      -7 -12  79 CALM      30.31F
DOUGLAS        FAIR      -5  -9  83 CALM      30.37F

$$
WYZ021-027>030-104>119-082000-
SOUTHERN WYOMING

CITY           SKY/WX    TMP DP  RH WIND       PRES   REMARKS
EVANSTON       CLOUDY    11   0  61 E9        30.14F WCI  -2
FORT BRIDGER   CLOUDY     2  -3  81 E3        30.21F
ROCK SPRINGS   FAIR       7   0  73 CALM      30.19F
DIXON          FAIR      14  -2  47 CALM      30.25F
RAWLINS        FAIR       8  -4  58 E5        30.21F WCI   0
SARATOGA       FAIR      18   1  49 SE10      30.19F WCI   6
LARAMIE        FAIR      16  -4  41 S12       30.16F WCI   3
CHEYENNE       FAIR       8   1  73 S10       30.27F WCI  -6
TORRINGTON     FAIR       7  -3  64 CALM      30.45F
PINE BLUFFS    FAIR      10   0  61 S12G20    30.38F WCI  -4

$$




USA.gov is the U.S. government's official web portal to all federal, state and local government web resources and services.